Regional Weather Roundup
Issued by NWS

Home | Current Version | Previous Version | Text Only | Print | Product List | Glossary On
Versions: 1 2 3 4 5 6 7 8 9 10 11 12 13 14 15 16 17 18 19 20 21 22 23 24 25 26 27 28 29 30 31 32 33 34 35 36 37 38 39 40 41 42 43 44 45 46 47 48 49 50
000
ASUS43 KLMK 020210
RWRKY
KENTUCKY REGIONAL WEATHER ROUNDUP
NATIONAL WEATHER SERVICE LOUISVILLE KY
900 PM EST SUN FEB 01 2015

NOTE "FAIR" INDICATES FEW OR NO CLOUDS BELOW 12,000 FEET
WITH NO SIGNIFICANT WEATHER AND/OR OBSTRUCTIONS TO VISIBILITY.

KYZ001>023-026-027-061>063-070>075-020300-
WESTERN AND SOUTH CENTRAL KENTUCKY

CITY           SKY/WX    TMP DP  RH WIND       PRES   REMARKS
PADUCAH        CLOUDY    45  40  82 W18G25    29.72R
HENDERSON      CLOUDY    43  37  81 W15G22    29.66S
OWENSBORO      LGT RAIN  45  43  93 NW16      29.66R FOG
HOPKINSVILLE   CLOUDY    49  46  89 W7        29.68R
BOWLING GREEN  CLOUDY    50  45  83 W14G22    29.65R
GLASGOW        LGT RAIN  51  51 100 W15G22    29.62R
$$

KYZ024-025-028>034-038-045-046-053-020300-
NORTH CENTRAL KENTUCKY

CITY           SKY/WX    TMP DP  RH WIND       PRES   REMARKS
LOUISVILLE/SDF CLOUDY    49  45  86 W20G26    29.59R
LOUISVILLE/LOU CLOUDY    49  45  86 W15G25    29.59R
FORT KNOX      DRIZZLE   46  43  87 W13       29.59S
$$

KYZ035>037-039>044-047>052-055>060-089>105-020300-
NORTHEAST KENTUCKY

CITY           SKY/WX    TMP DP  RH WIND       PRES   REMARKS
LEXINGTON      LGT RAIN  48  47  96 S10       29.56F FOG
COVINGTON      CLOUDY    47  44  90 SW7       29.53F FOG
FRANKFORT      LGT RAIN  50  48  93 SW12      29.55S FOG
$$

KYZ054-064>069-076>088-106>120-020300-
SOUTHEAST KENTUCKY

CITY           SKY/WX    TMP DP  RH WIND       PRES   REMARKS
JACKSON        RAIN      47  45  93 VRB6      29.62F FOG
LONDON         LGT RAIN  51  47  86 S8        29.64S FOG
SOMERSET       RAIN      48  48 100 S9        29.62F
MIDDLESBORO    HVY RAIN  42  42 100 CALM      29.71F
MONTICELLO     CLOUDY    53  50  90 S13       29.64F
$$



USA.gov is the U.S. government's official web portal to all federal, state and local government web resources and services.